Ellensburg, WA

10:25 AM PDT on May 28, 2017 (GMT -0700)
Bowers

Weather History for KELN - January, 2014

Change the Weather History Date:

Thursday, January 23, 2014

  Actual Average (KYKM) Record (KYKM)
Temperature  
Mean Temperature 32 °F -  
Max Temperature 35 °F 39 °F 61 °F (1953)
Min Temperature 30 °F 24 °F -7 °F (1969)
Degree Days  
Heating Degree Days 32    
Moisture  
Dew Point 28 °F    
Average Humidity 85    
Maximum Humidity 92    
Minimum Humidity 76    
Precipitation  
Precipitation 0.00 in - - ()
Sea Level Pressure  
Sea Level Pressure 30.57 in    
Wind  
Wind Speed 1 mph (ESE)    
Max Wind Speed 8 mph    
Max Gust Speed -    
Visibility 5 miles    
Events      
Averages and records for this station are not official NWS values.
T = Trace of Precipitation, MM = Missing Value Source: NWS Daily Summary

Daily Weather History Graph

Daily Weather History Graph

Search for Another Location

Airport or City:

Trip Planner

Search our weather history database for the weather conditions in past years. The results will help you decide how hot, cold, wet, or windy it might be!

Date:

Astronomy

Jan. 23, 2014 Rise Set
Actual Time 7:37 AM PST 4:51 PM PST
Civil Twilight 7:03 AM PST 5:24 PM PST
Nautical Twilight 6:26 AM PST 6:02 PM PST
Astronomical Twilight 5:50 AM PST 6:38 PM PST
Moon No Moon Rise 10:44 AM PST (1/23)
Length of Visible Light 10h 21m
Length of Day
9h 14m
Waning Gibbous, 54% of the Moon is Illuminated
Jan 23
Waning Gibbous
Jan 23
Last Quarter
Jan 30
New
Feb 6
First Quarter
Feb 14
Full

Hourly Weather History & Observations

Time (PST) Temp. Windchill Dew Point Humidity Pressure Visibility Wind Dir Wind Speed Gust Speed Precip Events Conditions
12:43 AM 30.9 °F - 28.9 °F 92% 30.48 in 1.2 mi Calm Calm - N/A   Overcast
12:53 AM 32.0 °F - 28.9 °F 88% 30.55 in 2.0 mi Calm Calm - N/A   Overcast
1:09 AM 32.0 °F - 28.0 °F 85% 30.49 in 3.0 mi Calm Calm - N/A   Overcast
1:22 AM 32.0 °F - 27.0 °F 82% 30.49 in 5.0 mi Calm Calm - N/A   Haze
1:53 AM 30.9 °F 27.5 °F 27.0 °F 85% 30.54 in 6.0 mi SSE 3.5 mph - N/A   Overcast
2:53 AM 32.0 °F 26.4 °F 28.0 °F 85% 30.56 in 6.0 mi East 5.8 mph - N/A   Overcast
3:48 AM 32.0 °F - 28.4 °F 87% 30.51 in 6.0 mi Calm Calm - N/A   Overcast
3:53 AM 32.0 °F - 28.0 °F 85% 30.57 in 6.0 mi Calm Calm - N/A   Overcast
4:03 AM 30.9 °F - 27.0 °F 85% 30.52 in 6.0 mi Calm Calm - N/A   Overcast
4:53 AM 30.9 °F - 28.0 °F 89% 30.57 in 6.0 mi Calm Calm - N/A   Overcast
5:53 AM 30.9 °F 27.5 °F 27.0 °F 85% 30.57 in 4.0 mi SSE 3.5 mph - N/A   Overcast
6:43 AM 30.9 °F 27.5 °F 28.0 °F 89% 30.53 in 4.0 mi South 3.5 mph - N/A   Overcast
6:53 AM 30.9 °F - 28.0 °F 89% 30.58 in 3.0 mi Calm Calm - N/A   Overcast
7:07 AM 30.9 °F 27.5 °F 28.0 °F 89% 30.53 in 2.0 mi SSE 3.5 mph - N/A   Overcast
7:34 AM 30.9 °F - 28.0 °F 89% 30.54 in 1.2 mi Calm Calm - N/A   Overcast
7:43 AM 30.9 °F - 28.0 °F 89% 30.54 in 1.0 mi Calm Calm - N/A   Overcast
7:53 AM 30.9 °F - 28.9 °F 92% 30.60 in 1.0 mi Calm Calm - N/A   Overcast
8:32 AM 30.9 °F 27.5 °F 28.0 °F 89% 30.55 in 1.8 mi South 3.5 mph - N/A   Overcast
8:42 AM 30.9 °F - 28.0 °F 89% 30.55 in 2.5 mi Calm Calm - N/A   Overcast
8:46 AM 30.9 °F - 28.0 °F 89% 30.56 in 4.0 mi Calm Calm - N/A   Overcast
8:53 AM 32.0 °F - 28.0 °F 85% 30.61 in 4.0 mi Calm Calm - N/A   Overcast
9:53 AM 32.0 °F 28.7 °F 28.0 °F 85% 30.63 in 5.0 mi SW 3.5 mph - N/A   Overcast
10:12 AM 32.0 °F - 27.0 °F 82% 30.58 in 5.0 mi Calm Calm - N/A   Haze
10:46 AM 32.0 °F - 27.0 °F 82% 30.58 in 6.0 mi Calm Calm - N/A   Haze
10:53 AM 33.1 °F - 28.0 °F 82% 30.64 in 6.0 mi Calm Calm - N/A   Haze
11:53 AM 32.0 °F 28.7 °F 27.0 °F 82% 30.63 in 6.0 mi South 3.5 mph - N/A   Haze
12:53 PM 33.1 °F 30.0 °F 28.0 °F 82% 30.61 in 6.0 mi ENE 3.5 mph - N/A   Haze
1:39 PM 34.0 °F 27.2 °F 28.0 °F 79% 30.54 in 6.0 mi ENE 8.1 mph - N/A   Haze
1:53 PM 34.0 °F 28.0 °F 28.0 °F 79% 30.58 in 7.0 mi East 6.9 mph - N/A   Overcast
2:00 PM 35.1 °F 29.3 °F 28.0 °F 76% 30.53 in 7.0 mi East 6.9 mph - N/A   Overcast
2:28 PM 34.0 °F 29.8 °F 28.9 °F 82% 30.52 in 6.0 mi East 4.6 mph - N/A   Haze
2:53 PM 34.0 °F 29.8 °F 28.9 °F 82% 30.58 in 6.0 mi East 4.6 mph - N/A   Haze
3:53 PM 34.0 °F 31.0 °F 28.0 °F 79% 30.58 in 6.0 mi NE 3.5 mph - N/A   Haze
4:53 PM 33.1 °F - 28.9 °F 85% 30.58 in 8.0 mi Calm Calm - N/A   Overcast
5:53 PM 33.1 °F 30.0 °F 28.0 °F 82% 30.59 in 7.0 mi East 3.5 mph - N/A   Overcast
6:53 PM 33.1 °F - 28.9 °F 85% 30.61 in 6.0 mi Calm Calm - N/A   Overcast
7:53 PM 33.1 °F - 28.9 °F 85% 30.63 in 6.0 mi Calm Calm - N/A   Overcast
8:22 PM 33.1 °F - 28.0 °F 82% 30.58 in 5.0 mi Calm Calm - N/A   Haze
8:53 PM 33.1 °F - 28.9 °F 85% 30.64 in 4.0 mi Calm Calm - N/A   Overcast
9:10 PM 33.1 °F - 28.0 °F 82% 30.58 in 6.0 mi Calm Calm - N/A   Haze
9:21 PM 32.0 °F - 28.0 °F 85% 30.58 in 6.0 mi Calm Calm - N/A   Overcast
9:53 PM 32.0 °F - 28.0 °F 85% 30.64 in 5.0 mi Calm Calm - N/A   Overcast
10:53 PM 32.0 °F - 28.0 °F 85% 30.65 in 5.0 mi Calm Calm - N/A   Overcast
11:53 PM 32.0 °F - 28.9 °F 88% 30.65 in 3.0 mi Calm Calm - N/A   Overcast